TimeEST,TemperatureF,Dew PointF,Humidity,Sea Level PressureIn,VisibilityMPH,Wind Direction,Wind SpeedMPH,Gust SpeedMPH,PrecipitationIn,Events,Conditions,WindDirDegrees,DateUTC
12:54 AM,55.0,53.1,93,29.67,10.0,SW,4.6,-,N/A,,Overcast,220,2008-02-18 05:54:00
1:03 AM,55.4,53.6,94,29.69,10.0,Variable,4.6,-,N/A,,Overcast,0,2008-02-18 06:03:00
1:40 AM,53.6,51.8,94,29.68,10.0,South,11.5,-,N/A,,Partly Cloudy,180,2008-02-18 06:40:00
1:54 AM,53.1,51.1,93,29.65,10.0,South,13.8,-,N/A,,Clear,180,2008-02-18 06:54:00
2:54 AM,52.0,50.0,93,29.66,10.0,South,8.1,-,N/A,,Clear,190,2008-02-18 07:54:00
3:54 AM,48.9,48.0,97,29.65,10.0,Calm,Calm,-,N/A,,Clear,0,2008-02-18 08:54:00
4:23 AM,44.6,44.6,100,29.66,1.8,North,3.5,-,N/A,,Clear,10,2008-02-18 09:23:00
4:35 AM,44.6,44.6,100,29.66,0.8,North,4.6,-,N/A,,Clear,350,2008-02-18 09:35:00
4:44 AM,44.6,44.6,100,29.66,0.5,Calm,Calm,-,N/A,Fog,Fog,0,2008-02-18 09:44:00
4:54 AM,42.1,42.1,100,29.66,0.5,NNW,5.8,-,N/A,Fog,Fog,330,2008-02-18 09:54:00
5:03 AM,42.8,42.8,100,29.67,0.2,NW,4.6,-,N/A,Fog,Fog,320,2008-02-18 10:03:00
5:54 AM,43.0,43.0,100,29.67,0.5,Calm,Calm,-,N/A,Fog,Fog,0,2008-02-18 10:54:00
6:19 AM,42.8,42.8,100,29.69,0.2,Calm,Calm,-,N/A,Fog,Fog,0,2008-02-18 11:19:00
6:54 AM,41.0,41.0,100,29.68,0.5,Variable,4.6,-,N/A,Fog,Fog,0,2008-02-18 11:54:00
7:11 AM,41.0,41.0,100,29.69,0.2,Calm,Calm,-,N/A,Fog,Fog,0,2008-02-18 12:11:00
7:28 AM,42.8,42.8,100,29.70,0.2,Calm,Calm,-,N/A,Fog,Fog,0,2008-02-18 12:28:00
7:54 AM,44.1,44.1,100,29.69,0.2,North,6.9,-,N/A,Fog,Fog,350,2008-02-18 12:54:00
8:15 AM,44.6,44.6,100,29.72,0.2,NW,5.8,-,N/A,Fog,Fog,320,2008-02-18 13:15:00
8:21 AM,44.6,44.6,100,29.72,1.0,NNW,4.6,-,N/A,,Mist,330,2008-02-18 13:21:00
8:23 AM,44.6,44.6,100,29.72,2.5,NNW,4.6,-,N/A,,Mostly Cloudy,330,2008-02-18 13:23:00
8:27 AM,44.6,44.6,100,29.72,5.0,Calm,Calm,-,N/A,,Scattered Clouds,0,2008-02-18 13:27:00
8:54 AM,48.0,45.0,89,29.70,10.0,NNW,6.9,-,N/A,,Clear,340,2008-02-18 13:54:00
9:41 AM,50.0,46.4,87,29.73,10.0,NNW,6.9,-,N/A,,Mostly Cloudy,330,2008-02-18 14:41:00
9:54 AM,50.0,45.0,83,29.70,10.0,NNW,9.2,-,N/A,,Mostly Cloudy,330,2008-02-18 14:54:00
10:08 AM,50.0,44.6,82,29.72,10.0,NW,11.5,-,N/A,,Scattered Clouds,320,2008-02-18 15:08:00
10:54 AM,46.9,39.9,77,29.73,10.0,NNW,15.0,23.0,N/A,,Scattered Clouds,340,2008-02-18 15:54:00
11:54 AM,46.9,37.9,71,29.73,10.0,North,20.7,27.6,N/A,,Clear,350,2008-02-18 16:54:00
12:54 PM,46.9,36.0,66,29.75,10.0,North,15.0,23.0,N/A,,Clear,350,2008-02-18 17:54:00
1:54 PM,48.9,35.1,59,29.74,10.0,North,11.5,-,N/A,,Clear,360,2008-02-18 18:54:00
2:54 PM,50.0,33.1,52,29.72,10.0,North,13.8,20.7,N/A,,Clear,350,2008-02-18 19:54:00
3:54 PM,48.0,33.1,56,29.75,10.0,NNW,15.0,-,N/A,,Clear,340,2008-02-18 20:54:00
4:54 PM,45.0,30.0,56,29.80,10.0,NNW,18.4,-,N/A,,Clear,330,2008-02-18 21:54:00
5:54 PM,43.0,28.0,56,29.82,10.0,NNW,13.8,-,N/A,,Clear,330,2008-02-18 22:54:00
6:54 PM,41.0,21.9,47,29.86,10.0,WNW,11.5,19.6,N/A,,Clear,300,2008-02-18 23:54:00
7:54 PM,42.1,19.9,41,29.88,10.0,WNW,5.8,-,N/A,,Clear,290,2008-02-19 00:54:00
8:54 PM,39.0,23.0,53,29.92,10.0,NW,4.6,-,N/A,,Mostly Cloudy,310,2008-02-19 01:54:00
9:54 PM,39.0,18.0,43,29.94,10.0,Variable,6.9,-,N/A,,Scattered Clouds,0,2008-02-19 02:54:00
10:54 PM,37.9,19.9,48,29.95,10.0,Variable,3.5,-,N/A,,Mostly Cloudy,0,2008-02-19 03:54:00
11:54 PM,37.9,17.1,43,29.96,10.0,WNW,8.1,-,N/A,,Overcast,300,2008-02-19 04:54:00